Tracking 23731 objects as of 27-Sep-2021
HD Live streaming from Space Station
objects crossing your sky now

STARLINK-2066

Track STARLINK-2066 now!
10-day predictions
STARLINK-2066 is classified as:


NORAD ID: 47673
Int'l Code: 2021-012BF
Perigee: 553.1 km
Apogee: 555.5 km
Inclination: 53.1 °
Period: 95.6 minutes
Semi major axis: 6925 km
RCS: Unknown
Launch date: February 16, 2021
Source: United States (US)
Launch site: AIR FORCE EASTERN TEST RANGE (AFETR)
aabbcc
Your satellite tracking list
Your tracking list is empty




NASA's NSSDC Master Catalog

Two Line Element Set (TLE):
1 47673U 21012BF  21270.09725245 -.00001997  00000-0 -11518-3 0  9996
2 47673  53.0547 144.6880 0001732  78.7798 281.3385 15.06410973 34882
Source of the keplerian elements: AFSPC